星链-5714 (STARLINK-5714 )

导读

STARLINK-5714是美国SpaceX公司星链(Starlink)项目的低轨通信卫星,于2023年2月12日发射入轨,属于星链第二代星座的V1.5批次卫星。作为星链全球高速互联网星座的组成部分,它配备激光星间链路模块,可实现卫星间直接通信,助力构建覆盖全球的低延迟宽带网络,服务偏远地区、海上和空中等网络覆盖不足区域。该卫星运行在近地轨道,是目前全球最大卫星星座的一员,推动了全球卫星互联网的覆盖进程。

基本信息
目录编号:
55614
目录名称:
STARLINK-5714
国际标识:
2023-020AX
轨道中心:
EARTH
卫星名称:
星链-5714
卫星全名:
星链-5714 (STARLINK-5714 )
卫星状态:
在轨 (已飞行1307 天)
发射日期:
2023-02-12 UTC
国别 :
美国 (US)
星等 :
--
该卫星已列入 空间交会检测服务 Space Conjunction Data Service (SCDS) ,当前飞行风险评估等级: 高风险
轨道信息
数据来源 国际轨道数据
星历时间: 2026-09-10T04:15:32+0800
1天前
查看轨道信息
半长轴: 6861.203km
偏心率: 0.0001425
轨道倾角: 43.003°
近地点辐角 267.548°
升交点赤经 19.446°
平近点角 92.521°
近地点: 482.088km
远地点: 484.044km
周期: 94.267分钟
每日圈数: 15.275746
详细信息
固有亮度:
5
最大亮度:
2.5
卫星平台:
Starlink v1.5
覆盖范围:
全球
运营商:
太空探索技术公司
运营商所在国:
美国
制造商(研发单位):
太空探索技术公司
制造商所在国:
美国
使用方式:
暂无
卫星简介
星链(Starlink)计划是由太空探索技术公司(SpaceX)提出的一个巨型低轨卫星互联网星座项目,计划在2019年至2024年间在太空搭建由约1.2万颗卫星组成的“星链”网络,其中1584颗将部署在地球上空550千米处的近地轨道,并从2020年开始工作。该卫星仍在工作。
2D轨道图
3D轨道图
轨道高度分析图
轨道倾角分析图
轨道综合分析图
查看轨道综合分析图
交会数据列表
事件ID 空间交会对象 最接近时刻(TCA) 交会距离 交会风险概率(CRP) 交会风险指数(CRI) 操作
CDM_260913-132605-561406-660621
2026-09-13T
13:26:45+0000
0.506 km
远距离
1.216304E-4 高风险 0.77
CDM_260912-063205-561406-791121
2026-09-12T
06:32:51+0000
0.572 km
远距离
9.781266E-5 中风险 0.75
CDM_260913-035905-561406-704821
2026-09-13T
03:59:48+0000
0.609 km
远距离
6.354622E-5 中风险 0.71
CDM_260913-092905-561406-704821
2026-09-13T
09:29:20+0000
1.140 km
极远距离
8.170979E-6 低风险 0.53
CDM_260912-045805-561406-791121
2026-09-12T
04:58:42+0000
1.528 km
极远距离
4.038383E-6 低风险 0.47
CDM_260911-124105-561406-650022
2026-09-11T
12:41:27+0000
1.102 km
极远距离
4.032222E-6 低风险 0.47
CDM_260913-203005-561406-660621
2026-09-13T
20:30:26+0000
1.688 km
极远距离
2.681133E-6 低风险 0.44
CDM_260912-212705-561406-791121
2026-09-12T
21:27:20+0000
1.881 km
极远距离
2.208183E-6 低风险 0.42
CDM_260912-080705-561406-791122
2026-09-12T
08:07:01+0000
1.943 km
极远距离
2.029904E-6 低风险 0.41
CDM_260903-214005-561406-791122
2026-09-03T
21:40:49+0000
2.467 km
极远距离
1.216888E-6 低风险 0.37
与全量物体交会距离演化趋势
与全量物体交会风险概率演化趋势